Weather in Khiva

Uzbekistan     41°23′03″N   60°21′42″E
temp.,
°C
wind,
m/s
gust,
m/s
humid.,
%
clouds,
%
prec.,
mm/h
press.,
hPa
HPBL,
m
12 april, mon
mon1223:00+17ene712350 0.0 1023874
02:00+15ene410410 0.0 1022381
05:00+14ene49450 0.0 1022246
08:00+15ne59400 0.0 1023364
11:00+20ene67181 0.0 10231219
14:00+24ene56103 0.0 10211988
17:00+24ne5510100 0.0 10202112
20:00+22ne5813100 0.0 1021397
13 april, tue
tue1323:00+18ne481791 0.0 1022186
02:00+16ne482093 0.0 1021151
05:00+14ne34235 0.0 102260
08:00+16ne352310 0.0 1023171
11:00+21ne44161 0.0 10231391
14:00+24ne44130 0.0 10211746
17:00+25nne66120 0.0 10202145
20:00+22nne69150 0.0 1019341
14 april, wed
wed1423:00+19nne35220 0.0 102084
02:00+17ne34290 0.0 101954
05:00+16n34330 0.0 101848
08:00+16nne69390 0.0 1019424
11:00+21ne69240 0.0 10181501
14:00+23ne68210 0.0 10162188
17:00+24ne56190 0.0 10142470
20:00+21ne58230 0.0 1014264
15 april, thu
thu1523:00+19ene22270 0.0 101523
02:00+17se113350 0.0 101411
05:00+16wnw223411 0.0 101411
08:00+18nnw222884 0.0 1015104
11:00+22nw22200 0.0 10151325
14:00+25w44162 0.0 10132287
17:00+26wnw551586 0.0 10122473
20:00+23wnw3518100 0.0 1012110
16 april, fri
fri1623:00+21wnw22215 0.0 101323
02:00+19ene33240 0.0 101225
05:00+18se33255 0.0 101217
08:00+20ssw352097 0.0 1013157
11:00+26ssw5515100 0.0 10131322
14:00+28wsw56165 0.0 10122961
17:00+28w771442 0.0 10112945
20:00+24wnw571999 0.0 1012203